[Date Prev][Date Next][Thread Prev][Thread Next] - [Date Index][Thread Index][Author Index]
2 Line ISS Keps 8-14
- Subject: [sarex] 2 Line ISS Keps 8-14
- From: "Dave Larsen PhD" <doc@xxxxxxxxxxx>
- Date: Sat, 14 Aug 2004 05:18:55 -0700
ISS
1 25544U 98067A 04227.08328711 .00017992 00000-0 14584-3 0 4409
2 25544 51.6326 30.2103 0005561 113.4008 353.7675 15.70830660327417
----
Via the sarex mailing list at AMSAT.ORG courtesy of AMSAT-NA.
To unsubscribe, send "unsubscribe sarex" to Majordomo@amsat.org
AMSAT Home